FW8979 Weather Reports


time (UTC)temp
F
wind
direction
speed
knots
gust
knots
rain 1hr
in
rain 24hr
in
rain mn
in
humidity
%
barometer
mb
20260906052908 71 311 0.9 0.9 0.00 0.11 0.11 97 1003.8
20260906052404 71 183 0.0 0.0 0.00 0.11 0.11 97 1003.3
20260906051901 71 156 0.9 0.9 0.07 0.11 0.11 97 1003.6
20260906051401 71 203 2.6 2.6 0.42 0.11 0.11 97 1004.4
20260906050856 72 203 4.3 5.2 0.78 0.10 0.10 97 1004.8
20260906050351 72 197 1.7 1.7 0.97 0.06 0.06 97 1005.3
20260906045850 72 186 6.1 7.8 1.87 1.43 1.43 97 1005.6
20260906045349 72 214 2.6 4.3 1.79 1.34 1.34 96 1005.6
20260906044846 72 313 4.3 7.0 0.54 1.11 1.11 95 1005.6
20260906044346 73 356 2.6 2.6 0.07 1.03 1.03 94 1005.4
20260906043841 73 73 3.5 5.2 0.00 1.02 1.02 95 1004.7
20260906043337 73 74 2.6 2.6 0.00 1.02 1.02 96 1004.2
20260906042833 73 329 3.5 5.2 0.05 1.02 1.02 95 1003.7
20260906042331 73 128 2.6 2.6 0.35 1.02 1.02 96 1003.0
20260906041827 72 130 7.0 9.6 0.47 1.01 1.01 97 1003.0
20260906041323 72 170 3.5 6.1 0.42 0.96 0.96 97 1003.6
20260906040823 72 123 1.7 2.6 1.09 0.94 0.94 97 1003.4
20260906040318 73 192 4.3 7.8 3.07 0.90 0.90 98 1003.8
20260906035813 73 214 7.8 12.2 3.71 0.74 0.74 96 1004.6
20260906035308 74 59 5.2 8.7 2.29 0.38 0.38 94 1004.4
20260906034803 77 71 2.6 4.3 0.66 0.11 0.11 90 1003.9
20260906034258 80 90 2.6 2.6 0.00 0.00 0.00 77 1003.8
20260906033754 78 245 0.9 1.7 0.00 0.00 0.00 80 1003.7
20260906033253 77 62 3.5 4.3 0.00 0.00 0.00 86 1003.8
20260906032750 77 150 0.0 0.0 0.00 0.00 0.00 86 1003.1
20260906032250 77 152 0.0 0.0 0.00 0.00 0.00 86 1003.1
20260906031745 77 157 0.0 0.9 0.00 0.00 0.00 86 1002.9
20260906031241 77 140 0.0 0.9 0.00 0.00 0.00 85 1002.7
20260906030740 77 190 0.0 0.0 0.00 0.00 0.00 85 1002.5
20260906030236 77 182 0.0 0.0 0.00 0.00 0.00 84 1002.5
20260906025735 77 188 0.0 0.9 0.00 0.00 0.00 84 1002.6
20260906025229 77 252 1.7 1.7 0.00 0.00 0.00 83 1002.7
20260906024728 78 298 1.7 1.7 0.00 0.00 0.00 81 1002.6
20260906024228 78 137 0.0 0.0 0.00 0.00 0.00 79 1002.6
20260906023724 78 136 0.9 0.9 0.00 0.00 0.00 79 1002.6
20260906023219 79 172 0.0 0.0 0.00 0.00 0.00 76 1002.4
20260906022714 79 197 0.0 0.0 0.00 0.00 0.00 75 1002.5
20260906022209 78 160 0.0 0.0 0.00 0.00 0.00 76 1002.3
20260906021706 79 140 0.0 0.0 0.00 0.00 0.00 76 1002.1
20260906021204 79 157 0.9 1.7 0.00 0.00 0.00 74 1002.0
20260906020659 80 164 0.9 1.7 0.00 0.00 0.00 73 1001.8
20260906020154 79 206 0.9 0.9 0.00 0.00 0.00 73 1001.8
20260906015648 80 147 0.0 0.0 0.00 0.00 0.00 75 1001.6
20260906015146 80 155 0.9 0.9 0.00 0.00 0.00 71 1001.4
20260906014641 80 174 0.9 0.9 0.00 0.00 0.00 70 1001.6
20260906014137 79 142 0.0 0.9 0.00 0.00 0.00 74 1001.6
20260906013633 80 102 0.0 0.9 0.00 0.00 0.00 72 1001.8
20260906013128 81 215 0.9 0.9 0.00 0.00 0.00 70 1001.7
20260906012628 81 270 1.7 1.7 0.00 0.00 0.00 69 1001.7
20260906012122 81 96 1.7 1.7 0.00 0.00 0.00 72 1001.8
20260906011618 82 131 0.9 1.7 0.00 0.00 0.00 66 1002.0
20260906011113 82 195 0.9 1.7 0.00 0.00 0.00 68 1002.0
20260906010608 82 235 0.9 1.7 0.00 0.00 0.00 68 1001.9
20260906010104 81 255 4.3 6.1 0.00 0.00 0.00 69 1002.4
20260906005604 82 4 2.6 2.6 0.00 0.00 0.00 68 1003.0
20260906005103 82 348 1.7 1.7 0.00 0.00 0.00 69 1002.7
20260906004602 80 334 1.7 1.7 0.00 0.00 0.00 74 1002.6
20260906004057 83 295 8.7 11.3 0.00 0.00 0.00 75 1002.5
20260906003553 86 352 5.2 7.0 0.00 0.00 0.00 71 1002.2
20260906003049 87 319 6.1 7.0 0.00 0.00 0.00 69 1002.0
20260906002549 87 354 1.7 1.7 0.00 0.00 0.00 70 1001.8
20260906002044 87 204 0.9 0.9 0.00 0.00 0.00 67 1001.7
20260906001539 88 98 0.0 0.9 0.00 0.00 0.00 66 1001.6
20260906001033 88 171 0.0 0.0 0.00 0.00 0.00 65 1001.9
20260906000529 89 123 0.0 0.0 0.00 0.00 0.00 64 1001.4
20260906000024 89 150 0.9 0.9 0.00 0.00 0.00 64 1001.7
20260905235518 89 150 2.6 2.6 0.00 0.00 0.00 63 1001.5
20260905235013 89 215 0.9 1.7 0.00 0.00 0.00 64 1001.7
20260905234509 89 122 0.0 0.0 0.00 0.00 0.00 68 1001.6
20260905234009 89 109 0.9 0.9 0.00 0.00 0.00 63 1001.6
20260905233504 91 169 0.0 0.9 0.00 0.00 0.00 63 1001.7
20260905233003 91 224 0.0 0.9 0.00 0.00 0.00 61 1001.5
20260905232459 91 178 0.0 0.9 0.00 0.00 0.00 60 1001.4
20260905231954 91 143 2.6 2.6 0.00 0.00 0.00 60 1001.3
20260905231450 91 196 2.6 2.6 0.00 0.00 0.00 59 1001.4
20260905230946 91 159 0.9 0.9 0.00 0.00 0.00 61 1001.4
20260905230445 91 174 0.0 0.0 0.00 0.00 0.00 62 1001.5
20260905225943 92 228 1.7 1.7 0.00 0.00 0.00 60 1001.3
20260905225438 93 204 2.6 4.3 0.00 0.00 0.00 60 1001.4
20260905224933 96 234 4.3 6.1 0.00 0.00 0.00 54 1001.3
20260905224429 97 79 0.9 1.7 0.00 0.00 0.00 47 1001.0
20260905223922 97 74 0.0 0.9 0.00 0.00 0.00 54 1001.2
20260905223421 96 219 0.9 0.9 0.00 0.00 0.00 48 1001.2
20260905222921 97 71 1.7 1.7 0.00 0.00 0.00 47 1001.0
20260905222420 98 121 0.0 0.0 0.00 0.00 0.00 49 1001.0
20260905221916 97 148 0.0 0.0 0.00 0.00 0.00 50 1001.1
20260905221413 97 67 0.0 0.9 0.00 0.00 0.00 46 1001.1
20260905220909 98 23 1.7 1.7 0.00 0.00 0.00 48 1001.3
20260905220404 98 70 2.6 2.6 0.00 0.00 0.00 45 1001.3
20260905215903 99 101 0.9 0.9 0.00 0.00 0.00 48 1001.3
20260905215359 99 303 0.9 0.9 0.00 0.00 0.00 46 1001.4
20260905214855 99 170 0.0 0.0 0.00 0.00 0.00 45 1001.2
20260905214350 98 143 0.9 0.9 0.00 0.00 0.00 46 1001.2
20260905213845 99 63 1.7 2.6 0.00 0.00 0.00 45 1001.3
20260905213342 98 98 0.0 0.0 0.00 0.00 0.00 44 1001.1
20260905212841 98 99 1.7 1.7 0.00 0.00 0.00 46 1001.2
20260905212336 98 263 0.0 0.0 0.00 0.00 0.00 49 1001.4
20260905211836 97 293 0.9 1.7 0.00 0.00 0.00 52 1001.2
20260905211331 97 294 2.6 2.6 0.00 0.00 0.00 48 1001.3
20260905210827 96 346 0.0 0.0 0.00 0.00 0.00 51 1001.4
20260905210322 96 341 3.5 5.2 0.00 0.00 0.00 51 1001.3
20260905205821 97 75 0.0 0.9 0.00 0.00 0.00 57 1001.3
20260905205316 96 303 0.9 0.9 0.00 0.00 0.00 53 1001.5
20260905204815 97 15 0.0 0.9 0.00 0.00 0.00 50 1001.6
20260905204311 98 289 0.9 1.7 0.00 0.00 0.00 47 1001.7
20260905203810 98 347 2.6 4.3 0.00 0.00 0.00 49 1001.7
20260905203306 98 318 2.6 2.6 0.00 0.00 0.00 49 1001.7
20260905202801 98 340 5.2 5.2 0.00 0.00 0.00 49 1001.8
20260905202256 99 316 2.6 4.3 0.00 0.00 0.00 48 1001.7
20260905201751 98 22 1.7 2.6 0.00 0.00 0.00 50 1001.8
20260905201246 98 95 0.0 0.9 0.00 0.00 0.00 49 1002.0
20260905200741 98 299 1.7 1.7 0.00 0.00 0.00 49 1002.0
20260905200237 98 51 2.6 2.6 0.00 0.00 0.00 48 1002.3
20260905195735 99 10 2.6 4.3 0.00 0.00 0.00 51 1002.2
20260905195230 98 329 0.9 0.9 0.00 0.00 0.00 50 1002.4
20260905194726 99 165 0.0 0.0 0.00 0.00 0.00 50 1002.6
20260905194225 98 318 0.9 0.9 0.00 0.00 0.00 51 1002.4
20260905193719 100 280 0.9 1.7 0.00 0.00 0.00 49 1002.6
20260905193214 98 131 0.0 0.0 0.00 0.00 0.00 48 1002.5
20260905192710 98 160 0.9 0.9 0.00 0.00 0.00 48 1002.7
20260905192206 98 173 0.9 0.9 0.00 0.00 0.00 49 1002.7
20260905191706 97 94 2.6 4.3 0.00 0.00 0.00 49 1002.8
20260905191204 98 328 3.5 4.3 0.00 0.00 0.00 51 1003.1
20260905190703 97 288 1.7 1.7 0.00 0.00 0.00 50 1003.0
20260905190201 97 303 4.3 5.2 0.00 0.00 0.00 52 1003.0
20260905185701 97 296 0.9 0.9 0.00 0.00 0.00 51 1003.1
20260905185155 96 155 0.9 1.7 0.00 0.00 0.00 54 1003.0
20260905184655 97 78 0.0 0.9 0.00 0.00 0.00 53 1003.4
20260905184154 97 116 2.6 2.6 0.00 0.00 0.00 51 1003.4
20260905183648 98 95 0.0 0.0 0.00 0.00 0.00 53 1003.3
20260905183143 96 345 2.6 2.6 0.00 0.00 0.00 52 1003.5
20260905182643 97 260 0.0 0.9 0.00 0.00 0.00 58 1003.5
20260905182143 97 342 0.9 1.7 0.00 0.00 0.00 52 1003.8
20260905181638 96 223 0.9 0.9 0.00 0.00 0.00 53 1003.9
20260905181137 96 74 0.0 0.0 0.00 0.00 0.00 56 1004.0
20260905180632 96 311 4.3 5.2 0.00 0.00 0.00 56 1004.0
20260905180127 96 0 2.6 2.6 0.00 0.00 0.00 60 1003.9
20260905175626 96 67 0.9 1.7 0.00 0.00 0.00 58 1003.9
20260905175121 95 134 1.7 1.7 0.00 0.00 0.00 58 1003.9
20260905174611 95 68 0.9 1.7 0.00 0.00 0.00 57 1004.1
20260905174106 95 144 0.9 0.9 0.00 0.00 0.00 56 1004.3
20260905173603 94 280 0.0 0.9 0.00 0.00 0.00 60 1003.9
20260905173058 95 76 1.7 1.7 0.00 0.00 0.00 58 1004.2
20260905172556 95 181 2.6 2.6 0.00 0.00 0.00 60 1004.5
20260905172052 94 44 2.6 2.6 0.00 0.00 0.00 59 1004.4
20260905171548 94 324 0.9 0.9 0.00 0.00 0.00 62 1004.0
20260905171044 93 346 0.9 1.7 0.00 0.00 0.00 65 1004.4
20260905170541 93 71 2.6 4.3 0.00 0.00 0.00 62 1004.4
20260905170036 93 306 1.7 1.7 0.00 0.00 0.00 62 1004.4
20260905165530 93 176 1.7 1.7 0.00 0.00 0.00 66 1004.4
20260905165026 92 63 0.9 0.9 0.00 0.00 0.00 64 1004.5
20260905164520 92 72 0.0 0.9 0.00 0.00 0.00 65 1004.7
20260905164015 92 267 1.7 1.7 0.00 0.00 0.00 63 1004.7
20260905163511 92 275 1.7 1.7 0.00 0.00 0.00 64 1004.8
20260905163006 90 274 0.0 0.0 0.00 0.00 0.00 68 1004.9
20260905162502 90 321 1.7 1.7 0.00 0.00 0.00 65 1004.8
20260905161957 91 35 0.9 1.7 0.00 0.00 0.00 67 1005.0
20260905161456 90 28 1.7 1.7 0.00 0.00 0.00 67 1005.1
20260905160954 90 86 0.9 0.9 0.00 0.00 0.00 67 1005.1
20260905160448 89 41 1.7 2.6 0.00 0.00 0.00 68 1005.2
20260905155947 88 334 2.6 2.6 0.00 0.00 0.00 68 1005.2
20260905155443 89 300 0.9 1.7 0.00 0.00 0.00 70 1005.5
20260905154941 88 334 0.9 0.9 0.00 0.00 0.00 72 1005.4
20260905154436 87 334 0.9 0.9 0.00 0.00 0.00 73 1005.3
20260905153932 88 196 0.9 0.9 0.00 0.00 0.00 74 1005.4
20260905153428 86 332 0.9 1.7 0.00 0.00 0.00 74 1005.2
20260905152928 87 277 0.9 0.9 0.00 0.00 0.00 76 1005.2
20260905152428 86 314 0.9 0.9 0.00 0.00 0.00 77 1005.3
20260905151923 85 352 0.9 0.9 0.00 0.00 0.00 79 1005.2
20260905151419 84 76 0.0 0.0 0.00 0.00 0.00 79 1005.4
20260905150918 84 295 1.7 1.7 0.00 0.00 0.00 80 1005.4
20260905150413 84 154 0.0 0.0 0.00 0.00 0.00 81 1005.5
20260905145909 83 88 0.0 0.0 0.00 0.00 0.00 82 1005.4
20260905145404 82 348 0.9 0.9 0.00 0.00 0.00 83 1005.5
20260905144904 82 81 0.9 0.9 0.00 0.00 0.00 83 1005.6
20260905144359 82 25 0.9 0.9 0.00 0.00 0.00 83 1005.5
20260905143858 81 208 0.0 0.0 0.00 0.00 0.00 83 1005.7
20260905143352 81 190 0.0 0.9 0.00 0.00 0.00 84 1005.5
20260905142851 81 72 0.9 0.9 0.00 0.00 0.00 86 1005.6
20260905142350 80 72 0.9 0.9 0.00 0.00 0.00 85 1005.3
20260905141846 80 73 0.0 0.0 0.00 0.00 0.00 85 1005.7
20260905141341 80 96 0.9 0.9 0.00 0.00 0.00 86 1005.4
20260905140838 80 111 0.0 0.0 0.00 0.00 0.00 86 1005.6
20260905140337 80 113 0.0 0.0 0.00 0.00 0.00 86 1005.6
20260905135836 80 113 0.0 0.0 0.00 0.00 0.00 86 1005.4
20260905135332 79 113 0.0 0.0 0.00 0.00 0.00 88 1005.4
20260905134827 79 113 0.0 0.0 0.00 0.00 0.00 88 1005.6
20260905134320 79 114 0.0 0.0 0.00 0.00 0.00 87 1005.5
20260905133815 79 114 0.0 0.0 0.00 0.00 0.00 88 1005.5
20260905133310 78 114 0.0 0.0 0.00 0.00 0.00 89 1005.5
20260905132809 78 114 0.0 0.0 0.00 0.00 0.00 91 1005.7
20260905132306 78 114 0.0 0.0 0.00 0.00 0.00 91 1005.4
20260905131759 78 115 0.0 0.0 0.00 0.00 0.00 89 1005.7
20260905131255 78 173 0.0 0.0 0.00 0.00 0.00 90 1005.8
20260905130749 77 163 0.0 0.0 0.00 0.00 0.00 90 1005.9
20260905130248 77 161 0.0 0.0 0.00 0.00 0.00 90 1005.6
20260905125744 77 166 0.0 0.9 0.00 0.00 0.00 91 1005.9
20260905125239 77 157 0.9 0.9 0.00 0.00 0.00 92 1005.8
20260905124736 76 131 0.0 0.9 0.00 0.00 0.00 93 1006.0
20260905124231 75 160 0.0 0.0 0.00 0.00 0.00 96 1005.8
20260905123726 75 155 0.0 0.0 0.00 0.00 0.00 97 1005.8
20260905123223 74 143 0.9 0.9 0.00 0.00 0.00 98 1005.9
20260905122723 73 175 0.0 0.0 0.00 0.00 0.00 98 1005.8
20260905122217 73 142 0.0 0.0 0.00 0.00 0.00 99 1005.5
20260905121712 73 140 0.0 0.0 0.00 0.00 0.00 99 1005.6
20260905121209 73 140 0.0 0.0 0.00 0.00 0.00 99 1005.6
20260905120707 73 140 0.0 0.0 0.00 0.00 0.00 99 1005.4
20260905120202 73 140 0.0 0.0 0.00 0.00 0.00 99 1005.4
20260905115702 73 140 0.0 0.0 0.00 0.00 0.00 99 1005.4
20260905115157 72 140 0.0 0.0 0.00 0.00 0.00 99 1005.4
20260905114656 72 140 0.0 0.0 0.00 0.00 0.00 99 1005.3
20260905114154 72 140 0.0 0.0 0.00 0.00 0.00 99 1005.0
20260905113649 72 140 0.0 0.0 0.00 0.00 0.00 99 1005.0
20260905113145 72 140 0.0 0.0 0.00 0.00 0.00 99 1005.1
20260905112639 72 140 0.0 0.0 0.00 0.00 0.00 99 1004.9
20260905112135 72 140 0.0 0.0 0.00 0.00 0.00 99 1005.0
20260905111635 72 140 0.0 0.0 0.00 0.00 0.00 99 1005.0
20260905111134 72 141 0.0 0.0 0.00 0.00 0.00 99 1004.8
20260905110633 72 140 0.0 0.0 0.00 0.00 0.00 99 1004.9
20260905110129 72 140 0.0 0.0 0.00 0.00 0.00 99 1004.7
20260905105624 72 140 0.0 0.0 0.00 0.00 0.00 99 1004.8
20260905105123 72 140 0.0 0.0 0.00 0.00 0.00 99 1004.9
20260905104618 72 140 0.0 0.0 0.00 0.00 0.00 99 1004.7
20260905104113 72 140 0.0 0.0 0.00 0.00 0.00 99 1004.6
20260905103608 73 141 0.0 0.0 0.00 0.00 0.00 99 1004.3
20260905103104 73 141 0.0 0.0 0.00 0.00 0.00 99 1004.5
20260905102600 73 141 0.0 0.0 0.00 0.00 0.00 99 1004.5
20260905102056 73 141 0.0 0.0 0.00 0.00 0.00 99 1004.6
20260905101554 73 142 0.0 0.0 0.00 0.00 0.00 99 1004.6
20260905101053 73 142 0.9 0.9 0.00 0.00 0.00 99 1004.5
20260905100549 73 76 0.0 0.0 0.00 0.00 0.00 99 1004.3
20260905100049 73 76 0.0 0.0 0.00 0.00 0.00 98 1004.3
20260905095543 72 76 0.0 0.0 0.00 0.00 0.00 98 1004.2
20260905095039 73 76 0.0 0.0 0.00 0.00 0.00 98 1003.9
20260905094534 72 76 0.0 0.0 0.00 0.00 0.00 98 1004.1
20260905094033 72 76 0.0 0.0 0.00 0.00 0.00 98 1004.1
20260905093527 73 76 0.0 0.0 0.00 0.00 0.00 98 1004.2
20260905093024 73 76 0.0 0.0 0.00 0.00 0.00 98 1004.1
20260905092524 73 76 0.0 0.0 0.00 0.00 0.00 98 1004.1
20260905092020 73 78 0.9 0.9 0.00 0.00 0.00 98 1004.2
20260905091519 73 162 0.0 0.0 0.00 0.00 0.00 98 1003.9
20260905091014 73 162 0.0 0.0 0.00 0.00 0.00 98 1004.0
20260905090513 73 162 0.0 0.0 0.00 0.00 0.00 98 1003.8
20260905090008 73 162 0.0 0.0 0.00 0.00 0.00 98 1004.0
20260905085507 73 162 0.0 0.0 0.00 0.00 0.00 98 1004.1
20260905085002 73 162 0.0 0.0 0.00 0.00 0.00 98 1004.0
20260905084457 73 162 0.0 0.0 0.00 0.00 0.00 98 1004.1
20260905083952 73 162 0.0 0.0 0.00 0.00 0.00 98 1004.2
20260905083447 73 162 0.0 0.0 0.00 0.00 0.00 98 1004.2
20260905082943 73 162 0.0 0.0 0.00 0.00 0.00 98 1004.1
20260905082439 73 162 0.0 0.0 0.00 0.00 0.00 98 1004.0
20260905081933 74 162 0.0 0.0 0.00 0.00 0.00 98 1004.2
20260905081428 73 162 0.0 0.0 0.00 0.00 0.00 98 1004.0
20260905080927 73 162 0.0 0.0 0.00 0.00 0.00 97 1004.3
20260905080422 74 162 0.0 0.0 0.00 0.00 0.00 97 1004.1
20260905075921 74 162 0.0 0.0 0.00 0.00 0.00 97 1004.4
20260905075415 74 162 0.0 0.0 0.00 0.00 0.00 97 1004.3
20260905074914 74 162 0.0 0.0 0.00 0.00 0.00 97 1004.4
20260905074410 74 162 0.0 0.0 0.00 0.00 0.00 97 1004.3
20260905073906 74 162 0.0 0.0 0.00 0.00 0.00 97 1004.4
20260905073401 74 162 0.0 0.0 0.00 0.00 0.00 97 1004.3
20260905072856 74 163 0.0 0.0 0.00 0.00 0.00 97 1004.3
20260905072351 74 82 0.0 0.0 0.00 0.00 0.00 97 1004.2
20260905071847 74 82 0.0 0.0 0.00 0.00 0.00 97 1004.3
20260905071343 74 82 0.0 0.0 0.00 0.00 0.00 96 1004.5
20260905070837 74 82 0.0 0.0 0.00 0.00 0.00 96 1004.5
20260905070334 74 82 0.0 0.0 0.00 0.00 0.00 96 1004.5
20260905065833 74 82 0.0 0.0 0.00 0.00 0.00 96 1004.4
20260905065331 74 79 0.0 0.0 0.00 0.00 0.00 96 1004.2
20260905064826 75 299 0.0 0.0 0.00 0.00 0.00 96 1004.3
20260905064322 75 298 0.0 0.0 0.00 0.00 0.00 96 1004.4
20260905063821 75 298 0.0 0.0 0.00 0.00 0.00 96 1004.4
20260905063317 74 298 0.0 0.0 0.00 0.00 0.00 96 1004.5
20260905062813 75 298 0.0 0.0 0.00 0.00 0.00 96 1004.3
20260905062307 75 298 0.0 0.0 0.00 0.00 0.00 96 1004.4
20260905061802 75 298 0.0 0.0 0.00 0.00 0.00 96 1004.5
20260905061302 75 298 0.0 0.0 0.00 0.00 0.00 95 1004.5
20260905060757 75 298 0.0 0.0 0.00 0.00 0.00 95 1004.4
20260905060254 75 298 0.0 0.0 0.00 0.00 0.00 95 1004.6
20260905055752 75 298 0.0 0.0 0.00 0.00 0.00 95 1004.6
20260905055247 75 298 0.0 0.0 0.00 0.00 0.00 95 1004.6
20260905054742 75 298 0.0 0.0 0.00 0.00 0.00 94 1004.7
20260905054238 75 298 0.0 0.0 0.00 0.00 0.00 95 1004.5
20260905053737 75 298 0.0 0.0 0.00 0.00 0.00 94 1004.4
20260905053233 75 298 0.0 0.0 0.00 0.00 0.00 94 1004.4